EHI
0 0 0 0 0 0 0 0 0 0 0 0 0 0 0 0 0 0 0 0 0 0 0 0 0 0 0 0 0 0 0 0 0 0 0 0 0 0 0 0 0 0 0 0
0 0 0 0 0 0 0 0 0 0 0 0 0 0 0 0 0 0 0 0 0 0 0 0 0 0 0 0 0 0 0 0 0 0 0 0 0 0 0 0 0 0 0 0
0 0 0 0 0 0 0 0 0 0 0 0 0 0 0 0 0 0 0 0 0 0 0 0 0 0 0 0 0 0 0 0 0 0 0 0 0 0 0 0 0 0 0 0
0 0 0 0 0 0 0 0 0 0 0 0 0 0 0 0 0 0 0 0 0 0 0 0 0 0 0 0 0 0 0 0 0 0 0 0 0 0 0 0 0 0 0 0
0 0 0 0 0 0 0 0 0 0 0 0 0 0 0 0 0 0 0 0 0 0 0 0 0 0 0 0 0 0 0 0 0 0 0 0 0 0 0 0 0 0 0 0
0 0 0 0 0 0 0 0 0 0 0 0 0 0 0 0 0 0 0 0 0 0 0 0 0 0 0 0 0 0 0 0 0 0 0 0 0 0 0 0 0 0 0 0
0 0 0 0 0 0 0 0 0 0 0 0 0 0 0 0 0 0 0 0 0 0 0 0 0 0 0 0 0 0 0 0 0 0 0 0 0 0 0 0 0 0 0 0
0 0 0 0 0 0 0 0 0 0 0 0 0 0 0 0 0 0 0 0 0 0 0 0 0 0 0 0 0 0 0 0 0 0 0 0 0 0 0 0 0 0 0 0
0 0 0 0 0 0 0 0 0 0 0 0 0 0 0 0 0 0 0 0 0 0 0 0 0 0 0 0 0 0 0 0 0 0 0 0 0 0 0 0 0 0 0 0
0 0 0 0 0 0 0 0 0 0 0 0 0 0 0 0 0 0 0 0 0 0 0 0 0 0 0 0 0 0 0 0 0 0 0 0 0 0 0 0 0 0 0 0
0 0 0 0 0 0 0 0 0 0 0 0 0 0 0 0 0 0 0 0 0 0 0 0 0 0 0 0 0 0 0 0 0 0 0 0 0 0 0 0 0 0 0 0
0 0 0 0 0 0 0 0 0 0 0 0 0 0 0 0 0 0 0 0 0 0 0 0 0 0 0 0 0 0 0 0 0 0 0 0 0 0 0 0 0 0 0 0
0 0 0 0 0 0 0 0 0 0 0 0 0 0 0 0 0 0 0 0 0 0 0 0 0 0 0 0 0 0 0 0 0 0 0 0 0 0 0 0 0 0 0 0
0 0 0 0 0 0 0 0 0 0 0 0 0 0 0 0 0 0 0 0 0 0 0 0 0 0 0 0 0 0 0 0 0 0 0 0 0 0 0 0 0 0 0 0
0 0 0 0 0 0 0 0 0 0 0 0 0 0 0 0 0 0 0 0 0 0 0 0 0 0 0 0 0 0 0 0 0 0 0 0 0 0 0 0 0 0 0 0
0 0 0 0 0 0 0 0 0 0 0 0 0 0 0 0 0 0 0 0 0 0 0 0 0 0 0 0 0 0 0 0 0 0 0 0 0 0 0 0 0 0 0 0
0 0 0 0 0 0 0 0 0 0 0 0 0 0 0 0 0 0 0 0 0 0 0 0 0 0 0 0 0 0 0 0 0 0 0 0 0 0 0 0 0 0 0 0
0 0 0 0 0 0 0 0 0 0 0 0 0 0 0 0 0 0 0 0 0 0 0 0 0 0 0 0 0 0 0 0 0 0 0 0 0 0 0 0 0 0 0 0
0 0 0 0 0 0 0 0 0 0 0 0 0 0 0 0 0 0 0 0 0 0 0 0 0 0 0 0 0 0 0 0 0 0 0 0 0 0 0 0 0 0 0 0
0 0 0 0 0 0 0 0 0 0 0 0 0 0 0 0 0 0 0 0 0 0 0 0 0 0 0 0 0 0 0 0 0 0 0 0 0 0 0 0 0 0 0 0
0 0 0 0 0 0 0 0 0 0 0 0 0 0 0 0 0 0 0 0 0 0 0 0 0 0 0 0 0 0 0 0 0 0 0 0 0 0 0 0 0 0 0 0
0 0 0 0 0 0 0 0 0 0 0 0 0 0 0 0 0 0 0 0 0 0 0 0 0 0 0 0 0 0 0 0 0 0 0 0 0 0 0 0 0 0 0 0
0 0 0 0 0 0 0 0 0 0 0 0 0 0 0 0 0 0 0 0 0 0 0 0 0 0 0 0 0 0 0 0 0 0 0 0 0 0 0 0 0 0 0 0
0 0 0 0 0 0 0 0 0 0 0 0 0 0 0 0 0 0 0 0 0 0 0 0 0 0 0 0 0 0 0 0 0 0 0 0 0 0 0 0 0 0 0 0
0 0 0 0 0 0 0 0 0 0 0 0 0 0 0 0 0 0 0 0 0 0 0 0 0 0 0 0 0 0 0 0 0 0 0 0 0 0 0 0 0 0 0 0
0 0 0 0 0 0 0 0 0 0 0 0 0 0 0 0 0 0 0 0 0 0 0 0 0 0 0 0 0 0 0 0 0 0 0 0 0 0 0 0 0 0 0 0
Wind_Speed
4 5 2 2 3 3 3 2 1 2 1 1 3 3 5 6 5 6 6 6 6 6 4 3 4 4 4 4 5 5 6 5 4 3 3 3 2 2 2 3 4 4 4 4
5 2 2 2 3 3 2 2 0 2 0 1 2 3 3 6 7 8 8 8 7 5 3 4 4 4 5 5 5 4 5 5 4 3 2 2 2 1 1 2 3 4 4 4
3 2 1 3 3 3 2 4 3 2 1 3 2 1 3 4 4 5 6 6 7 8 8 6 5 5 5 5 6 6 5 5 4 4 3 3 3 3 3 3 3 4 4 4
1 2 1 3 2 4 2 3 3 3 3 1 1 2 5 5 5 7 7 7 8 8 7 7 7 6 6 6 5 5 5 5 4 5 5 5 3 2 0 1 1 3 4 4
1 1 2 2 2 4 3 2 3 2 3 1 0 2 6 3 7 10 10 10 9 9 9 9 9 8 7 6 5 5 6 5 4 4 5 5 3 2 1 1 3 3 4 4
3 1 2 2 1 3 5 5 5 4 3 1 3 3 6 6 11 10 11 11 10 10 9 9 7 6 6 5 5 6 6 4 4 5 5 5 5 4 3 2 2 2 2 3
2 1 0 2 3 2 4 5 3 3 2 4 2 3 9 8 9 12 13 12 11 11 10 9 9 8 8 7 7 6 7 5 5 5 5 5 5 5 4 3 2 2 1 2
1 3 2 2 4 5 3 5 5 3 3 3 1 5 8 6 6 8 9 10 10 11 10 11 11 10 10 9 8 7 7 6 6 6 5 4 4 3 3 3 2 2 1 0
4 3 1 1 2 7 4 2 4 4 1 2 4 6 8 2 1 2 6 9 11 11 11 11 11 10 10 10 9 9 8 6 6 6 5 4 4 4 4 3 2 2 1 1
6 2 1 1 4 3 4 6 4 3 2 2 5 4 4 3 2 3 5 8 10 10 10 11 11 11 10 9 8 8 8 7 6 6 5 5 4 4 4 4 4 3 2 2
4 3 1 1 3 5 4 3 3 3 3 3 2 6 5 4 4 5 6 8 9 11 11 11 10 10 9 8 8 8 7 6 6 6 5 5 4 4 4 4 3 3 2 3
4 5 1 3 3 4 4 6 6 4 3 3 2 8 5 4 4 5 5 6 7 9 10 10 10 9 9 9 8 8 8 7 7 6 5 5 5 4 4 4 3 4 3 3
7 5 2 3 3 1 2 4 4 4 4 3 3 8 4 2 2 3 4 5 6 8 9 8 8 10 10 10 9 9 8 7 6 6 6 5 5 5 5 4 4 4 4 3
7 5 5 6 6 5 4 4 5 5 4 4 7 8 9 6 4 3 3 5 6 8 10 10 10 9 10 10 9 9 8 7 7 7 7 6 6 6 5 5 5 5 4 4
5 4 4 5 4 4 4 6 8 8 7 7 7 7 11 7 4 3 3 5 6 8 9 11 11 10 9 9 8 8 8 8 8 8 7 7 6 5 5 5 5 4 4 4
4 4 2 2 2 4 4 6 9 9 7 7 6 8 8 4 2 2 4 6 8 9 10 11 10 10 11 11 10 9 9 9 8 9 8 6 6 6 6 5 5 5 4 4
5 5 3 2 1 1 5 8 9 6 6 7 9 10 4 2 2 3 5 7 8 9 9 10 11 11 12 11 11 11 10 9 9 8 7 7 7 7 6 6 6 5 5 4
7 6 4 2 1 3 7 3 6 6 6 8 7 6 5 5 3 3 3 6 7 8 8 9 9 9 8 8 8 8 8 9 9 8 8 7 8 7 6 6 6 5 4 4
5 7 4 3 2 5 7 2 4 4 5 6 7 5 3 1 1 2 2 4 6 7 7 8 8 8 8 9 9 9 8 8 9 9 9 9 9 8 8 7 6 5 4 4
4 5 5 4 3 4 7 3 2 3 4 4 5 5 3 4 2 4 3 3 3 4 5 6 6 6 8 8 9 10 9 9 10 10 9 9 9 9 9 8 6 4 4 4
3 3 4 4 3 7 7 3 3 4 6 3 4 5 5 5 5 3 1 2 2 3 4 6 7 7 8 8 10 10 9 11 10 8 8 8 8 9 8 7 5 5 5 5
7 6 5 5 4 7 4 3 6 6 2 1 2 3 5 4 1 1 1 1 2 3 4 5 6 5 5 8 10 9 10 8 7 7 8 8 8 7 6 7 6 5 6 6
6 7 7 8 7 5 2 4 4 2 1 1 1 2 4 3 2 1 2 2 2 3 4 4 5 5 4 6 8 9 7 6 8 7 7 7 7 6 6 7 7 6 5 5
3 2 4 3 5 3 3 2 2 1 1 1 2 2 4 4 3 2 2 2 2 2 3 3 5 5 4 4 5 6 5 7 8 8 7 6 7 6 6 5 6 6 7 6
4 4 3 2 3 1 2 1 1 1 3 4 4 3 4 5 3 3 3 2 2 2 2 3 4 4 4 4 4 4 5 7 7 6 6 6 6 7 6 5 5 7 7 8
4 6 7 6 6 5 4 1 1 3 3 3 4 5 4 4 3 3 3 2 2 3 3 3 3 3 3 3 3 3 5 7 7 6 5 5 5 5 5 5 3 3 4 7
Wind_Direction
37 67 98 184 165 148 132 126 149 251 232 165 190 205 200 186 184 191 196 192 198 211 214 187 179 157 137 133 135 139 135 136 128 112 101 90 65 26 26 30 36 42 47 50
46 26 229 163 135 115 128 134 209 290 277 151 191 236 220 196 197 199 198 201 199 195 190 185 173 159 158 158 155 151 151 151 149 129 119 115 110 69 39 19 33 32 40 45
147 242 181 133 121 129 180 184 195 203 46 49 94 318 247 224 208 208 203 198 195 193 190 186 179 177 171 171 172 168 164 157 153 132 108 85 60 41 30 20 17 13 33 47
223 256 147 131 150 148 220 215 181 160 117 325 128 248 258 221 212 217 213 202 200 198 190 185 180 180 184 185 173 160 157 156 154 144 138 133 125 117 78 16 19 21 34 45
264 190 154 160 196 159 187 113 98 101 114 57 57 194 272 206 221 225 216 207 201 197 191 188 187 186 182 174 166 156 148 151 152 150 145 132 124 127 97 61 54 37 29 36
240 230 192 175 109 133 125 81 67 49 68 267 219 192 267 216 213 214 212 206 198 193 192 189 184 169 164 161 156 149 149 153 152 148 146 147 146 142 124 97 76 44 26 25
338 326 258 134 103 66 97 96 51 15 3 254 221 209 251 236 215 209 205 202 194 187 184 179 176 172 169 168 166 158 155 160 159 153 156 161 158 154 153 150 135 106 51 25
189 294 239 179 165 162 161 139 153 186 222 280 256 236 256 261 241 219 204 194 185 183 183 183 183 178 175 173 171 163 164 167 166 164 166 162 159 153 155 156 149 140 128 89
180 250 280 184 153 135 135 159 160 137 172 268 273 280 296 293 300 210 191 182 186 186 184 183 179 177 176 175 177 173 167 168 173 169 158 157 159 158 159 152 140 134 130 113
158 206 293 145 92 52 140 142 109 122 156 266 297 281 264 291 275 215 192 190 191 185 183 181 178 179 179 176 173 167 166 171 171 164 162 160 164 163 156 144 145 143 130 104
141 153 319 113 181 174 127 120 119 123 155 163 287 278 232 227 223 216 209 197 188 183 183 182 178 175 168 162 163 164 167 163 163 164 160 151 156 154 147 146 153 151 137 127
144 125 218 252 248 180 166 169 151 155 201 178 208 271 270 241 237 221 213 198 186 183 180 175 169 163 163 167 169 169 171 172 171 164 156 155 152 150 152 156 156 149 144 138
145 125 98 349 346 148 180 178 167 139 131 165 199 269 300 316 287 234 210 191 176 169 166 162 163 170 173 174 174 173 176 176 166 156 153 153 156 160 164 162 154 146 142 138
125 131 167 195 219 194 197 187 167 148 170 208 226 258 291 302 295 265 216 189 173 169 167 167 173 178 177 176 177 176 177 171 162 158 159 166 173 172 168 158 152 149 145 144
130 166 210 230 226 189 205 203 187 193 200 206 234 244 266 271 255 237 191 173 166 169 170 175 179 179 175 175 177 177 175 169 164 162 169 179 173 161 154 151 151 146 145 148
142 166 176 273 239 212 239 237 213 212 215 226 249 266 260 264 212 189 180 172 178 182 182 182 181 178 181 182 179 177 176 173 165 170 178 171 160 159 161 159 153 147 146 142
155 145 140 261 307 78 271 234 207 205 206 196 223 242 260 288 228 209 197 187 188 188 186 184 185 186 187 187 180 180 177 166 168 174 172 167 165 166 168 162 154 159 159 152
148 139 140 154 89 241 251 245 196 207 227 212 227 247 240 233 228 208 196 193 196 190 186 188 187 186 182 175 173 167 159 163 169 173 172 170 168 167 161 159 166 166 158 161
145 137 130 136 194 280 292 264 181 189 253 224 223 242 241 212 62 324 246 204 201 194 188 186 184 177 168 168 164 155 159 164 171 179 180 178 172 168 165 171 175 169 161 166
85 109 121 132 159 237 257 269 195 121 288 248 205 212 185 125 106 272 263 204 190 177 172 164 156 149 160 166 157 158 166 172 186 190 184 176 173 172 176 179 172 162 163 170
110 105 137 156 200 256 259 271 130 155 243 249 191 190 169 172 196 231 200 174 167 160 153 147 148 158 168 161 159 167 174 190 194 178 167 169 175 178 175 168 162 155 153 150
165 157 171 153 185 249 252 146 177 215 241 192 181 176 165 174 174 152 142 126 115 116 121 140 149 157 155 159 163 173 191 194 166 159 165 171 174 175 167 159 158 153 151 153
186 183 177 181 205 234 229 216 243 204 190 214 151 153 147 134 122 105 104 104 115 127 133 143 149 146 149 166 171 182 193 162 154 158 168 170 166 166 160 162 161 155 159 163
236 157 145 203 255 257 263 261 279 233 178 139 115 119 119 112 100 83 94 97 96 98 124 132 134 143 161 178 182 185 165 154 156 164 168 165 164 163 162 164 166 168 174 176
198 160 152 213 261 299 305 260 256 56 82 83 75 84 107 108 92 84 92 97 111 105 114 133 146 160 175 173 175 163 150 150 155 161 163 166 167 167 169 174 183 185 192 187
193 174 169 205 209 182 219 236 167 118 102 110 101 78 69 92 100 85 85 94 107 111 115 117 127 141 156 157 158 151 152 154 154 156 164 168 167 167 168 168 170 208 198 201